Temp
16 17 17 19 19 19 19 18 18 20 19 17 19 20 21 21 20 20 21 22 22 21 21 20 17 19 18 18 18 18 17 17 17 16 16 16 16 15 15 14 14 14 14 13
16 16 19 19 18 17 17 17 18 19 19 18 19 19 20 21 21 21 21 22 22 22 21 17 16 17 17 17 17 17 16 16 16 15 15 14 12 14 14 14 13 13 13 13
18 19 18 17 16 16 17 17 18 18 19 18 18 18 21 20 20 20 19 19 20 21 20 17 15 14 14 13 15 16 16 16 15 15 14 14 13 13 13 12 12 13 13 13
16 18 17 16 16 17 17 18 17 16 16 17 18 18 21 20 20 22 21 19 18 17 17 17 14 13 12 12 14 15 15 15 14 14 13 12 11 12 11 11 12 12 13 12
17 16 16 16 17 17 17 17 16 16 16 17 17 17 21 17 19 22 20 17 15 14 15 14 13 12 12 13 14 14 14 14 13 13 12 12 11 11 11 12 12 12 12 12
17 17 17 18 18 18 17 16 15 15 16 16 18 18 20 19 20 22 20 16 14 12 13 13 12 11 11 13 13 14 13 13 12 12 12 11 10 11 11 12 12 12 12 12
18 17 17 17 16 17 16 15 14 14 15 16 16 16 19 19 17 20 20 18 13 12 12 12 11 11 11 12 13 12 12 12 11 12 11 11 11 11 11 11 12 12 12 12
15 16 18 17 17 17 15 16 14 13 15 16 14 15 19 17 16 16 16 14 12 12 11 10 11 11 10 10 12 11 11 11 11 11 11 11 12 12 12 12 12 12 12 12
13 15 18 17 18 18 16 15 17 15 14 14 16 18 18 16 17 15 15 13 11 11 9 9 10 10 10 10 11 11 10 10 10 10 10 11 11 11 11 12 12 12 12 12
10 9 14 15 16 17 18 17 13 12 12 12 16 17 18 17 17 17 14 12 11 9 9 10 10 10 10 9 10 10 10 10 10 9 9 11 10 11 11 11 11 11 12 12
7 7 11 12 14 16 15 14 15 15 14 16 16 16 18 17 16 14 13 11 11 9 9 10 10 9 9 9 9 9 9 9 9 9 10 10 10 10 10 10 11 11 12 12
7 5 7 10 14 13 12 11 15 14 14 15 16 17 17 16 14 12 12 11 10 10 9 10 10 9 9 9 9 8 8 9 9 9 10 10 10 10 10 11 10 10 10 10
7 7 6 10 13 10 6 5 6 7 11 14 15 17 15 15 14 12 12 12 11 10 9 10 9 9 9 9 9 8 8 8 8 9 9 9 10 9 10 10 10 9 9 9
5 6 5 7 9 6 5 5 4 5 8 13 16 15 14 13 13 14 13 12 12 11 9 10 8 8 9 9 9 8 8 8 8 8 9 8 8 9 9 9 9 9 10 9
5 4 7 7 8 8 6 7 6 4 5 6 6 9 13 13 13 13 13 12 11 11 11 10 8 8 10 9 9 8 8 8 8 9 8 9 9 9 9 8 8 9 10 9
5 4 5 5 7 8 7 8 9 8 5 5 6 6 10 12 12 13 14 12 12 12 11 10 8 8 9 9 9 7 8 8 8 9 8 9 9 9 9 8 8 8 9 9
3 3 4 4 7 7 7 9 9 9 10 6 8 9 10 12 12 12 13 12 12 12 12 10 9 8 8 9 9 8 8 8 8 9 8 8 8 8 8 8 8 8 8 8
2 3 3 3 6 4 8 10 9 9 10 7 7 10 11 11 10 10 11 11 11 11 11 11 10 9 8 9 9 8 8 8 8 8 8 8 8 8 8 8 8 8 8 8
4 3 2 2 4 7 8 9 9 8 9 10 8 10 12 10 10 10 10 10 10 10 10 10 11 10 8 8 8 8 8 8 8 8 8 8 8 8 8 8 7 7 7 7
4 3 2 3 3 4 9 10 8 9 8 9 10 10 11 9 11 13 9 9 9 9 10 11 11 10 8 8 8 7 8 9 9 8 8 8 8 7 7 7 7 7 7 7
3 1 2 3 3 5 9 9 7 7 8 8 9 9 8 9 9 8 8 8 8 9 9 11 10 9 7 8 8 7 8 8 9 8 8 7 7 7 6 5 5 6 6 7
4 2 2 3 3 4 9 7 8 10 8 8 7 7 7 7 7 7 8 8 8 8 9 10 8 8 7 8 7 8 7 8 9 8 8 7 7 6 5 5 5 5 5 6
4 5 5 3 6 8 6 8 8 8 8 7 7 7 7 7 7 7 7 8 8 8 8 9 7 7 8 8 7 8 7 8 9 8 8 7 7 6 5 5 5 5 5 6
6 6 5 5 6 7 7 7 7 6 7 7 7 7 7 7 6 6 7 7 8 8 8 8 7 7 7 8 7 7 7 8 9 8 7 7 7 5 5 5 6 6 5 5
4 5 5 6 7 7 7 6 7 7 7 6 6 6 6 6 6 6 6 7 7 8 8 8 7 7 7 7 7 7 7 8 8 8 7 7 6 6 5 5 6 6 6 6
5 5 5 6 7 7 8 8 8 7 7 7 6 6 6 6 6 6 6 6 6 8 8 7 8 6 7 7 7 6 7 8 8 8 7 7 6 6 6 6 6 6 6 6
Height
1497 1495 1492 1488 1492 1489 1489 1493 1490 1485 1488 1489 1479 1472 1469 1469 1469 1467 1464 1463 1462 1465 1469 1474 1475 1478 1482 1485 1488 1491 1494 1496 1497 1499 1499 1499 1499 1500 1502 1504 1505 1507 1507 1508
1497 1488 1483 1486 1490 1492 1490 1491 1485 1480 1483 1485 1478 1471 1464 1462 1458 1456 1455 1454 1453 1456 1462 1466 1469 1471 1475 1480 1484 1487 1489 1491 1493 1494 1495 1495 1495 1495 1497 1499 1501 1503 1503 1504
1481 1475 1480 1486 1487 1489 1486 1487 1482 1481 1480 1480 1473 1467 1451 1453 1450 1449 1448 1448 1448 1449 1453 1459 1462 1466 1471 1476 1478 1482 1486 1487 1488 1489 1489 1490 1491 1491 1492 1494 1497 1498 1499 1500
1482 1476 1480 1483 1482 1483 1482 1477 1481 1482 1484 1481 1474 1467 1449 1449 1446 1443 1442 1441 1444 1446 1447 1453 1457 1462 1467 1472 1475 1479 1481 1483 1484 1484 1485 1486 1488 1490 1491 1493 1493 1495 1496 1496
1473 1476 1476 1478 1472 1479 1475 1477 1479 1479 1478 1475 1472 1475 1444 1451 1444 1436 1439 1440 1442 1443 1444 1448 1454 1459 1464 1468 1472 1475 1477 1479 1480 1481 1482 1483 1485 1487 1488 1489 1491 1492 1493 1494
1469 1470 1472 1469 1469 1471 1474 1476 1480 1482 1476 1476 1459 1465 1442 1445 1440 1434 1437 1439 1441 1442 1443 1447 1453 1458 1462 1466 1469 1472 1474 1476 1478 1479 1479 1481 1482 1483 1485 1487 1488 1489 1490 1491
1461 1460 1462 1467 1468 1468 1474 1478 1480 1486 1479 1463 1461 1463 1444 1436 1440 1438 1436 1437 1441 1442 1444 1447 1452 1457 1461 1464 1466 1470 1472 1474 1476 1477 1478 1479 1480 1481 1483 1484 1485 1486 1488 1490
1469 1461 1452 1452 1452 1458 1466 1464 1474 1481 1467 1461 1468 1460 1439 1437 1438 1438 1439 1438 1440 1443 1445 1448 1453 1456 1461 1464 1466 1468 1470 1472 1474 1476 1478 1479 1480 1482 1483 1483 1484 1485 1487 1488
1474 1454 1447 1450 1449 1450 1455 1462 1451 1463 1467 1471 1453 1443 1435 1436 1433 1436 1435 1436 1439 1443 1446 1449 1453 1457 1461 1463 1466 1468 1470 1471 1473 1476 1478 1478 1479 1480 1482 1482 1482 1483 1484 1485
1487 1480 1457 1454 1452 1447 1443 1448 1465 1471 1472 1468 1444 1440 1436 1434 1432 1429 1433 1436 1439 1443 1447 1452 1454 1457 1461 1464 1465 1468 1470 1471 1473 1475 1477 1477 1479 1480 1480 1481 1482 1482 1482 1483
1500 1492 1466 1462 1449 1442 1443 1450 1444 1447 1449 1438 1439 1438 1426 1432 1436 1435 1433 1437 1439 1443 1447 1452 1455 1458 1461 1463 1465 1467 1470 1471 1473 1475 1475 1476 1478 1478 1479 1480 1480 1480 1479 1479
1500 1498 1478 1462 1449 1450 1452 1449 1433 1434 1437 1435 1432 1428 1427 1432 1438 1439 1439 1438 1439 1442 1446 1451 1454 1457 1460 1463 1465 1467 1469 1470 1472 1474 1474 1475 1477 1478 1478 1479 1478 1477 1475 1473
1498 1485 1478 1457 1443 1454 1466 1471 1468 1456 1441 1428 1435 1424 1426 1427 1438 1440 1439 1440 1441 1442 1444 1449 1452 1454 1458 1462 1464 1465 1468 1470 1471 1473 1473 1474 1475 1476 1476 1477 1477 1474 1472 1471
1501 1491 1486 1471 1454 1472 1470 1472 1472 1477 1454 1431 1419 1427 1431 1431 1438 1438 1440 1440 1441 1443 1444 1448 1450 1452 1457 1460 1463 1465 1467 1469 1471 1472 1472 1473 1474 1475 1476 1477 1476 1475 1474 1472
1498 1488 1477 1470 1467 1464 1466 1463 1465 1472 1469 1464 1459 1448 1433 1438 1439 1435 1440 1439 1439 1441 1444 1446 1447 1450 1455 1458 1461 1463 1466 1468 1470 1471 1471 1472 1474 1475 1476 1477 1477 1476 1475 1475
1492 1486 1477 1472 1464 1459 1451 1451 1450 1455 1464 1467 1464 1458 1446 1440 1441 1435 1436 1437 1439 1440 1442 1445 1447 1448 1452 1455 1459 1460 1464 1467 1469 1470 1471 1472 1474 1475 1476 1477 1477 1477 1476 1477
1490 1486 1476 1465 1455 1451 1445 1439 1441 1445 1445 1455 1453 1449 1445 1439 1440 1437 1436 1434 1437 1435 1437 1439 1442 1444 1446 1451 1455 1458 1460 1464 1468 1470 1471 1472 1474 1475 1476 1478 1479 1479 1480 1481
1484 1481 1478 1469 1456 1453 1435 1434 1438 1435 1433 1445 1452 1443 1438 1439 1439 1437 1436 1434 1433 1433 1434 1435 1437 1439 1441 1447 1452 1456 1458 1461 1465 1468 1471 1472 1474 1476 1477 1479 1481 1482 1483 1485
1473 1475 1477 1472 1453 1439 1431 1431 1434 1435 1430 1433 1440 1440 1434 1438 1434 1434 1435 1433 1433 1431 1431 1430 1431 1434 1436 1443 1449 1452 1455 1460 1463 1466 1470 1473 1475 1477 1479 1481 1483 1484 1486 1487
1462 1468 1473 1462 1459 1446 1419 1421 1431 1433 1431 1432 1429 1432 1436 1435 1428 1426 1432 1431 1432 1430 1428 1425 1425 1428 1431 1439 1445 1449 1452 1457 1462 1465 1469 1473 1476 1479 1481 1483 1485 1487 1489 1491
1455 1458 1454 1452 1456 1436 1421 1426 1431 1429 1429 1430 1433 1436 1437 1434 1432 1432 1431 1430 1431 1428 1425 1421 1421 1425 1427 1435 1442 1447 1450 1455 1461 1464 1469 1473 1476 1479 1483 1485 1488 1491 1493 1495
1444 1451 1450 1451 1444 1433 1420 1426 1425 1422 1429 1431 1434 1435 1437 1434 1432 1431 1428 1427 1428 1426 1423 1421 1420 1423 1426 1432 1439 1446 1450 1454 1459 1464 1468 1473 1476 1480 1483 1486 1489 1493 1495 1498
1442 1437 1435 1444 1423 1421 1421 1419 1421 1423 1423 1428 1432 1432 1433 1431 1431 1428 1424 1426 1428 1425 1423 1421 1420 1421 1425 1430 1438 1444 1449 1452 1457 1463 1467 1472 1476 1481 1484 1487 1490 1494 1498 1500
1430 1433 1431 1430 1421 1423 1423 1420 1421 1422 1422 1422 1422 1422 1425 1427 1425 1424 1424 1426 1427 1426 1424 1422 1420 1421 1424 1429 1436 1442 1446 1451 1455 1461 1466 1471 1476 1480 1484 1488 1492 1495 1499 1502
1433 1431 1423 1418 1418 1419 1416 1416 1417 1418 1421 1423 1422 1422 1422 1422 1425 1424 1424 1424 1425 1423 1423 1422 1419 1420 1423 1427 1433 1439 1443 1448 1454 1459 1465 1470 1475 1480 1484 1489 1492 1496 1500 1503
1425 1419 1417 1408 1411 1413 1411 1412 1412 1414 1416 1420 1422 1421 1422 1423 1422 1422 1421 1421 1422 1420 1420 1420 1418 1418 1421 1425 1430 1435 1440 1446 1451 1456 1462 1468 1473 1478 1484 1487 1491 1495 1501 1504
Wind_Speed
14 11 16 19 17 18 13 12 15 15 6 9 14 19 21 20 21 22 25 25 22 23 22 21 22 25 28 29 28 26 25 24 23 23 23 25 26 27 27 24 23 19 18 16
8 19 19 13 11 15 17 18 20 18 12 13 16 18 22 22 26 29 27 28 28 25 22 19 20 24 27 26 27 26 23 22 22 23 23 21 18 23 22 20 21 19 18 15
21 10 9 15 17 16 17 19 20 20 16 19 20 21 18 11 11 13 16 18 20 23 25 20 21 22 22 20 23 21 20 20 20 20 21 20 17 17 17 19 20 17 15 15
16 21 12 11 17 17 18 15 15 15 12 10 2 9 13 13 15 11 11 14 14 14 17 22 22 21 20 18 19 17 17 16 17 16 16 14 11 11 11 12 15 16 15 17
7 7 16 21 22 12 16 5 7 7 11 15 16 9 9 4 14 6 3 2 5 7 13 22 22 20 18 18 17 15 14 13 13 12 12 13 12 11 11 13 14 15 14 14
22 18 12 16 14 18 3 8 2 6 7 13 16 13 10 6 5 5 1 3 3 6 13 19 19 19 18 18 15 14 12 11 10 9 12 14 14 15 15 15 15 13 12 12
14 21 22 17 13 11 16 7 3 6 8 14 1 6 14 7 4 13 12 2 5 10 16 21 21 19 17 16 15 12 12 11 10 10 10 10 10 12 12 12 12 11 13 14
16 18 17 18 26 17 22 17 7 9 12 11 2 8 4 2 2 11 7 4 10 14 17 19 19 18 16 14 14 13 12 13 11 10 11 11 11 11 10 9 9 10 10 11
8 22 14 12 18 22 18 17 16 6 5 9 9 9 8 5 2 3 5 7 14 18 17 19 19 17 15 14 15 13 12 12 10 10 9 10 9 9 10 9 9 9 9 8
5 11 18 18 14 18 22 14 7 5 7 8 9 13 8 5 9 13 2 9 17 16 16 18 18 16 15 14 14 13 12 11 10 9 9 9 8 8 7 6 7 8 10 11
6 6 14 14 12 17 14 14 11 8 10 9 8 5 6 8 7 10 1 11 18 19 19 18 16 15 14 13 12 12 12 10 9 9 6 6 7 7 6 6 6 10 15 18
3 5 10 15 20 12 9 14 20 12 14 13 10 6 10 7 5 5 2 11 18 19 19 18 17 15 14 13 12 12 13 11 10 9 8 7 7 7 6 6 5 6 7 10
8 5 10 15 11 5 4 3 11 11 11 17 13 6 8 12 1 5 4 6 14 18 19 19 18 17 15 13 12 12 13 12 11 9 9 10 8 7 7 5 1 3 1 3
14 13 15 15 14 5 7 2 5 6 5 9 16 10 11 8 7 5 3 3 8 15 18 19 18 19 16 14 13 13 12 12 11 10 8 9 7 6 6 5 3 7 8 7
5 14 19 22 23 22 16 16 8 6 4 6 11 14 11 13 10 12 5 0 6 11 16 20 20 20 17 16 14 13 13 12 11 9 9 9 8 7 5 5 4 6 8 12
5 10 14 19 23 24 26 22 18 13 8 10 10 21 19 14 13 13 11 2 5 9 14 17 18 20 20 18 17 16 16 13 12 11 10 11 10 9 7 7 7 10 10 15
13 10 12 19 21 21 24 22 22 19 16 11 13 18 19 17 9 8 11 10 5 3 9 15 20 22 24 21 19 18 20 16 14 12 12 13 13 12 13 10 11 13 14 15
19 16 12 13 16 20 14 11 8 14 16 18 11 16 16 12 10 11 3 5 7 6 2 9 17 21 23 23 22 19 22 19 17 15 16 16 14 13 12 11 12 15 16 17
21 18 10 11 15 17 8 10 13 11 12 13 17 20 19 12 8 6 8 10 9 10 9 10 15 21 22 25 25 23 25 22 20 19 19 17 14 13 14 14 15 17 16 18
15 17 12 11 12 9 12 7 5 4 11 7 11 16 12 11 6 4 11 12 12 12 13 10 9 17 22 26 27 26 28 25 23 22 22 19 18 15 15 16 18 20 20 21
5 8 18 17 14 10 10 11 1 8 4 11 8 6 1 3 3 9 11 10 12 14 16 7 7 16 21 26 29 27 29 28 25 25 23 21 20 17 16 19 19 19 19 20
8 4 5 12 11 19 9 8 8 5 12 7 4 2 3 6 8 8 10 12 15 16 16 7 6 12 19 28 29 27 27 29 27 27 24 24 22 16 19 20 21 20 19 19
7 7 6 6 10 6 5 2 6 8 7 6 4 3 2 7 11 11 12 13 14 15 14 9 5 11 19 27 29 27 27 32 30 29 26 26 22 18 19 21 22 21 21 22
15 12 8 7 12 17 19 12 8 8 5 3 7 7 9 10 12 14 13 12 13 12 12 10 3 11 19 25 28 26 29 33 32 31 29 28 23 21 21 21 21 22 22 21
10 5 10 17 16 18 16 14 12 14 13 9 9 10 16 17 14 14 15 13 14 14 12 9 4 9 16 24 28 27 32 35 34 33 31 29 24 23 24 23 22 20 19 18
12 12 11 10 10 13 17 15 15 17 18 17 11 14 19 17 18 16 17 14 14 14 13 10 7 7 14 22 31 30 34 37 36 35 35 31 28 27 26 27 25 22 19 17
Wind_Direction
205 217 219 233 225 257 271 278 277 278 258 290 266 274 279 278 271 261 259 255 240 234 234 221 216 223 225 228 229 228 230 234 242 246 249 251 251 251 251 247 244 251 259 255
207 232 239 242 252 238 248 265 272 281 290 273 278 283 286 280 265 257 256 255 247 236 223 210 206 214 220 220 221 223 230 236 241 245 249 251 253 258 258 249 238 244 246 246
230 238 241 222 224 235 241 252 266 276 289 286 272 278 266 283 265 255 256 256 250 236 219 205 196 199 202 201 212 220 227 235 245 250 253 252 249 253 246 235 229 232 245 252
259 260 219 215 235 230 253 252 260 272 279 273 348 294 292 286 282 267 279 254 236 222 213 203 190 185 187 192 204 211 224 235 244 249 244 231 226 226 227 228 229 231 247 255
250 230 228 235 236 218 246 205 247 259 266 278 261 264 268 257 284 197 27 12 210 210 192 184 182 177 175 188 195 207 219 230 234 227 218 222 220 222 223 225 225 230 245 244
254 261 255 249 253 230 223 176 230 266 264 252 254 226 270 236 239 253 240 5 182 163 169 168 168 165 169 180 188 200 206 207 204 210 223 226 228 227 229 228 228 233 231 237
249 243 237 234 239 220 209 201 208 249 226 259 52 232 254 252 257 298 307 282 173 160 157 159 161 161 166 171 183 188 188 188 189 196 196 187 186 187 193 207 213 212 219 223
269 272 221 217 223 215 209 206 180 229 248 256 122 239 241 159 262 285 284 244 167 162 159 159 157 157 160 160 174 173 173 174 178 187 191 184 181 188 199 213 214 220 233 232
312 255 263 268 233 225 207 221 226 254 239 272 245 247 266 249 239 233 306 183 169 161 161 158 158 158 158 161 171 171 167 162 163 178 182 168 175 183 190 195 205 216 224 231
314 289 270 276 282 255 223 206 176 179 216 221 232 241 244 33 339 339 294 173 161 160 158 162 162 161 159 159 168 169 167 162 160 172 165 158 172 179 186 196 219 235 248 253
318 277 274 315 243 238 214 226 226 202 227 231 230 238 152 124 347 331 37 169 164 164 162 166 167 166 163 162 160 169 171 171 170 182 178 184 196 202 220 233 250 266 266 266
285 288 279 289 284 323 290 279 224 207 194 228 254 186 147 83 38 358 99 164 169 170 169 170 170 167 165 165 165 170 177 176 180 190 199 208 214 223 227 253 268 280 259 244
324 272 287 271 245 152 44 7 351 328 304 215 208 219 123 103 82 61 90 168 181 179 178 176 176 174 173 172 172 168 177 179 183 189 202 207 217 203 196 212 228 14 50 296
284 258 252 262 288 318 273 302 75 335 282 252 217 131 145 84 338 344 325 213 194 194 190 186 186 182 181 179 178 173 177 182 183 183 202 172 167 156 166 160 113 62 93 72
264 269 266 258 267 281 265 278 258 244 322 291 357 309 309 324 313 325 14 186 201 196 203 200 193 190 189 182 182 178 184 181 178 184 173 164 165 158 143 165 118 90 76 108
262 272 276 277 270 269 276 274 270 254 232 249 294 296 285 286 300 320 326 319 257 221 214 212 204 200 192 189 186 183 180 180 176 181 171 164 159 153 137 137 131 119 96 128
271 263 267 271 267 269 261 262 260 258 234 222 263 270 278 283 297 308 325 323 283 254 229 217 215 208 200 193 188 186 177 178 180 180 167 157 152 146 127 113 130 130 114 125
249 254 263 270 278 260 261 259 264 264 253 185 236 245 266 284 290 316 57 35 10 26 321 246 225 214 207 194 188 183 179 177 178 176 161 150 146 137 123 130 137 141 134 129
227 236 251 260 269 269 240 233 229 217 242 226 203 234 241 269 294 155 23 24 356 336 317 290 234 212 203 192 185 182 179 179 180 176 165 155 148 141 137 135 132 132 139 136
222 223 228 244 254 252 235 221 161 213 237 161 196 228 239 272 247 211 348 355 346 344 328 309 213 195 194 189 184 180 180 180 182 177 167 158 153 146 143 139 134 130 132 130
221 210 207 219 240 264 262 161 264 216 113 139 141 144 254 273 308 318 328 337 340 347 341 315 194 187 189 182 183 181 180 180 183 176 168 163 157 151 155 148 142 139 137 137
271 277 212 224 229 244 168 165 221 106 139 148 158 207 258 279 306 311 333 338 334 345 349 338 183 187 182 181 182 182 179 180 185 176 170 167 160 165 161 155 151 153 155 148
253 228 267 217 238 13 200 215 197 163 149 154 165 163 329 309 305 316 328 336 329 339 347 348 197 192 184 182 183 182 177 184 183 177 174 169 164 172 164 162 158 154 154 152
274 243 245 227 244 249 255 251 231 204 216 259 291 294 310 321 314 317 317 320 320 331 338 336 232 203 192 186 185 185 182 188 185 180 177 172 174 174 164 163 160 158 158 158
270 231 251 252 257 277 276 246 260 240 228 237 256 280 297 304 298 297 303 306 306 314 326 328 292 224 211 195 185 184 188 189 187 185 181 176 178 175 165 164 163 162 162 166
232 242 243 257 266 257 268 268 264 258 265 266 240 275 280 278 286 284 284 290 292 300 310 308 302 235 220 203 189 186 191 192 190 186 185 182 181 173 172 170 165 164 161 158